Theta_e
327 324 324 324 324 324 325 325 324 324 323 323 323 323 323 323 322 323 324 323 321 320 321 322 322 322 322 320 319 317 317 319 321 322 323 323 323 324 324 324 325 326
326 324 323 323 324 325 325 325 325 324 323 322 322 322 323 322 322 323 323 320 318 318 320 322 322 321 320 317 315 315 316 317 318 318 319 320 320 321 322 323 323 324
328 326 325 324 325 325 326 326 326 325 323 322 322 322 321 321 322 323 320 317 317 318 320 320 320 320 320 317 314 315 316 315 316 317 317 319 319 319 321 323 324 324
329 328 328 326 326 325 325 325 326 326 324 322 321 321 321 322 322 321 318 317 318 318 318 319 318 317 319 318 315 314 315 315 315 316 317 317 317 317 319 322 324 324
329 328 328 327 325 324 323 323 326 325 323 320 319 320 321 322 321 319 318 318 317 317 317 317 315 314 316 319 317 313 314 314 314 314 315 316 315 316 318 321 323 324
327 327 326 325 324 323 323 323 324 323 321 319 318 319 320 321 320 318 319 319 317 317 316 314 313 314 316 319 317 314 314 314 313 313 314 314 314 315 316 319 322 324
326 325 325 324 323 323 323 323 322 321 319 318 318 318 319 320 319 318 319 318 317 317 315 312 312 315 316 317 316 315 314 313 313 312 313 313 313 313 315 317 320 323
326 325 324 324 323 323 323 322 321 319 319 319 318 318 318 318 318 318 318 318 318 316 314 312 312 314 315 315 315 314 313 313 313 313 313 313 312 313 313 314 317 320
325 325 324 324 323 323 323 322 320 319 319 319 318 318 317 316 317 318 318 317 317 315 313 313 313 314 314 315 314 314 313 314 314 314 313 313 313 313 313 313 314 317
324 324 324 324 323 323 323 322 320 319 319 319 318 317 316 315 315 317 317 316 316 314 314 314 313 313 313 314 314 314 314 314 314 314 313 313 313 313 313 313 313 313
324 324 324 324 323 323 323 322 320 320 319 318 317 316 316 315 315 315 316 316 315 314 314 313 313 313 313 313 314 314 314 314 314 314 313 313 313 313 313 313 313 313
323 323 323 323 323 323 323 322 320 320 319 317 316 316 316 315 315 315 316 315 314 314 313 313 314 314 314 314 313 314 314 315 316 315 314 314 314 314 314 314 314 314
322 322 322 321 321 321 320 320 320 319 318 316 316 316 316 315 314 315 316 315 315 314 314 315 315 315 315 314 314 314 315 317 317 316 315 315 315 315 315 316 317 316
321 320 320 321 322 321 319 319 319 319 318 317 316 317 316 315 314 315 315 315 315 315 315 315 315 315 315 315 315 316 317 318 319 318 316 315 316 317 316 316 317 318
321 319 319 320 322 321 320 319 319 318 318 317 317 317 316 315 314 315 316 315 315 316 316 315 315 316 316 316 317 318 318 318 319 319 318 316 316 318 318 318 318 318
320 319 319 320 320 320 319 319 319 318 318 317 317 317 317 316 316 316 316 315 315 316 316 316 316 316 317 318 319 320 320 320 319 319 319 317 318 319 320 320 319 319
319 319 319 319 319 320 320 319 317 316 317 317 317 317 319 318 317 317 318 317 316 316 317 317 317 317 317 318 319 319 320 320 320 320 320 319 319 320 321 321 321 320
318 318 319 319 319 319 319 317 314 314 315 315 315 316 318 319 317 317 318 318 317 317 318 318 319 318 318 318 318 320 320 320 321 320 320 320 321 321 321 321 321 321
318 318 318 318 318 318 318 316 315 315 316 315 315 317 318 318 318 318 318 318 318 319 319 319 319 319 319 319 319 320 320 320 321 321 321 321 321 322 322 322 321 321
318 318 319 319 318 318 318 317 317 317 317 317 318 318 318 318 318 318 318 319 319 319 319 319 319 319 319 320 320 320 320 320 321 321 321 321 322 322 322 322 321 321
316 317 318 318 318 318 318 318 318 318 318 318 318 318 318 318 318 318 318 318 319 319 319 319 319 319 319 320 320 320 320 321 321 321 321 322 322 322 322 321 320 320
313 315 316 316 317 318 318 318 319 319 319 319 319 319 319 319 319 319 319 319 319 319 319 319 319 319 319 319 319 319 319 319 319 320 320 320 321 321 320 320 319 319
308 310 312 312 314 315 316 317 317 318 319 319 319 319 319 319 319 319 318 319 318 319 319 319 319 318 318 318 318 318 318 318 318 319 319 319 319 319 319 318 318 319
303 305 306 306 307 308 310 312 314 315 317 318 318 318 318 318 318 318 318 318 318 318 318 318 318 319 319 318 318 318 318 318 318 318 318 318 318 318 318 318 318 318
302 302 303 303 303 303 304 307 309 310 312 313 314 315 316 317 317 318 318 318 318 317 316 316 317 319 319 318 318 318 318 318 318 318 318 318 318 318 318 318 318 318
300 300 301 302 303 303 304 305 306 306 307 308 308 309 311 312 312 313 314 315 316 316 315 316 317 318 318 318 318 317 317 317 317 317 317 317 317 318 318 318 318 318
Wind_Speed
22 22 21 21 22 22 22 21 19 18 16 15 14 12 11 10 11 11 11 10 8 7 7 7 6 6 6 6 6 6 6 6 7 6 6 6 5 4 4 4 5 6
23 22 22 22 22 22 22 21 19 17 15 14 12 11 11 10 11 13 12 11 9 9 9 8 8 7 7 6 6 7 8 8 8 8 7 7 7 6 5 4 5 6
24 23 22 22 22 22 21 21 19 17 14 12 11 11 10 11 13 15 13 11 10 10 10 9 7 6 6 6 7 8 9 9 9 8 8 8 8 6 6 5 5 6
23 22 21 20 21 21 20 20 19 18 15 13 12 11 10 12 15 16 14 11 10 11 10 9 7 7 7 7 6 8 9 9 9 8 7 8 7 5 5 6 6 7
22 21 20 20 20 20 19 19 20 19 17 14 13 13 12 15 17 16 14 12 11 10 9 8 7 8 9 8 6 7 8 8 8 7 6 6 5 4 5 6 7 9
21 20 20 20 19 19 19 19 20 20 18 16 15 14 14 16 16 15 14 12 11 9 8 8 8 9 10 9 7 6 6 5 5 5 5 5 5 5 6 6 7 9
21 20 20 20 19 19 19 19 19 19 18 17 16 15 14 15 15 14 13 12 10 8 7 8 9 10 10 9 8 6 5 4 4 4 5 6 6 6 6 6 7 8
21 21 21 21 20 20 19 18 18 18 18 17 16 15 14 14 14 14 13 11 10 8 8 8 9 10 10 9 8 6 5 5 5 5 6 7 7 6 6 6 6 7
21 21 22 21 20 20 19 17 17 18 17 17 16 16 15 13 13 13 13 11 11 9 9 9 9 10 10 10 9 8 7 7 6 6 7 7 7 7 7 6 6 7
21 22 22 21 21 20 19 18 17 17 17 16 16 15 14 13 12 13 12 12 11 10 9 9 9 10 11 10 10 9 8 7 6 7 7 6 6 6 6 6 6 6
22 22 22 21 21 20 20 18 17 17 16 15 16 15 14 13 12 13 13 13 12 10 10 10 10 10 10 11 10 9 8 6 5 5 6 5 5 4 5 5 5 5
22 23 23 22 22 21 21 19 17 17 16 15 15 14 13 12 12 13 13 13 11 10 10 11 10 10 10 10 10 8 7 5 3 3 4 4 4 3 3 4 4 4
21 21 21 21 20 19 19 19 18 17 15 14 13 12 12 12 12 13 13 13 12 11 11 11 10 10 9 9 9 8 6 4 2 2 3 3 3 2 2 3 4 4
18 16 16 18 19 19 17 16 16 16 15 13 12 11 10 10 11 13 12 12 12 11 11 11 11 10 10 9 9 8 6 4 3 3 4 5 4 3 4 4 4 4
13 13 13 16 18 17 16 14 13 12 12 11 11 11 9 9 11 11 11 11 12 11 11 11 11 10 10 9 7 6 5 4 4 4 5 6 6 5 5 5 5 5
14 14 14 16 16 14 13 12 11 8 7 8 9 10 8 8 10 11 11 12 12 11 10 10 9 9 8 7 6 5 5 5 5 6 6 7 8 7 7 7 7 7
14 14 16 16 16 16 15 14 13 10 9 10 9 9 8 7 10 12 11 12 11 10 9 8 8 8 8 7 6 6 6 6 7 8 8 9 10 10 9 9 9 9
11 12 13 14 14 15 17 19 19 17 16 14 11 9 8 9 11 12 11 11 10 9 9 8 8 8 9 9 8 7 7 8 9 10 11 11 12 12 12 12 11 11
10 10 10 9 9 11 13 16 17 17 16 13 10 9 9 9 11 11 10 10 10 10 10 9 9 9 10 10 10 9 10 11 12 13 13 14 14 14 13 13 13 13
10 10 10 8 8 9 9 9 10 11 11 10 8 7 8 9 10 9 9 9 10 10 9 9 9 10 11 11 11 11 12 13 14 15 15 15 15 15 15 15 15 15
13 12 12 12 11 11 10 9 7 7 7 6 5 5 6 7 7 6 7 7 7 7 7 8 9 10 11 11 11 12 12 13 14 15 15 15 16 16 16 16 16 15
17 15 15 14 13 13 12 10 8 6 6 4 3 3 3 2 2 3 4 4 4 4 5 6 8 9 10 10 11 11 11 11 12 14 14 15 16 17 17 17 16 16
23 21 20 18 15 15 14 11 8 6 6 5 5 5 4 4 2 1 1 1 1 1 1 3 5 6 7 8 9 9 10 11 12 12 13 14 14 15 16 16 17 16
27 27 26 25 23 21 19 17 13 10 8 7 6 6 7 7 6 5 5 4 3 2 1 1 3 4 5 7 8 8 8 10 11 11 12 13 13 14 15 16 17 17
25 25 25 26 26 25 24 22 19 17 15 12 12 11 10 9 8 7 7 6 4 2 1 1 3 4 5 6 7 7 7 8 10 11 12 12 14 14 15 16 17 17
22 22 21 21 21 21 20 20 19 18 16 15 16 15 13 12 11 10 10 9 8 6 3 2 3 4 4 5 6 6 7 7 9 9 9 11 13 15 15 16 16 17
Wind_Direction
178 175 176 175 173 172 171 174 178 179 179 177 177 175 173 173 169 167 167 163 161 158 153 147 133 124 116 110 111 114 123 131 135 136 133 134 136 144 163 174 182 192
181 178 179 178 177 178 178 180 182 183 181 179 178 177 179 180 173 168 167 161 151 144 143 140 131 125 117 115 121 120 118 119 119 119 119 115 110 111 118 131 157 176
186 184 184 183 183 183 185 187 187 186 183 180 179 179 183 180 170 168 166 157 149 146 146 145 143 143 132 124 128 125 117 115 112 110 108 102 91 86 91 105 129 151
191 190 190 190 188 186 187 189 189 187 184 182 181 180 182 175 167 168 166 159 154 149 150 151 150 156 153 141 135 130 120 112 108 105 102 94 77 66 85 100 114 133
193 193 193 192 189 186 185 184 185 185 183 182 178 176 178 175 171 171 169 166 160 150 146 146 142 147 154 152 146 138 125 112 107 104 102 97 81 73 94 102 110 124
194 195 194 191 187 186 183 182 183 183 182 180 175 172 176 177 177 178 175 170 163 151 140 135 132 136 145 150 152 143 126 112 108 112 113 108 99 92 96 98 106 117
197 197 194 191 188 188 186 184 184 183 181 179 175 171 173 176 181 183 179 173 164 153 140 132 132 135 139 144 148 142 126 115 116 123 125 119 109 98 94 95 103 114
199 197 194 192 191 192 191 188 186 184 182 180 177 174 172 175 181 181 178 173 164 156 149 141 138 140 141 140 140 137 126 117 114 120 125 123 115 103 94 92 104 122
197 196 195 194 194 195 194 192 189 186 184 182 180 178 175 177 182 179 176 172 165 160 159 155 146 144 147 146 141 137 134 126 118 121 125 123 120 112 102 93 100 120
196 196 195 194 196 197 197 196 193 188 185 185 184 181 177 179 182 179 175 171 167 165 166 164 154 148 152 156 152 145 143 138 131 132 131 125 122 116 109 104 103 112
196 195 195 194 195 196 198 198 195 191 187 186 186 184 181 182 181 178 176 173 171 169 167 164 156 150 154 159 161 158 152 145 138 143 143 135 128 121 115 112 111 119
196 195 193 192 192 194 197 198 197 194 189 186 187 186 186 186 182 178 177 176 174 168 163 160 156 153 153 156 160 161 158 155 152 160 162 150 141 134 126 117 113 124
196 191 183 181 185 191 196 196 194 194 189 187 189 190 191 190 184 179 176 176 174 168 164 163 162 162 159 155 156 157 159 166 181 203 203 190 177 171 166 147 134 133
194 183 173 179 188 192 196 194 193 194 191 188 191 193 194 193 189 185 181 179 177 174 174 174 173 174 170 165 163 165 173 185 203 224 222 217 216 214 205 192 176 171
181 170 170 187 191 187 188 188 185 188 191 192 195 195 193 193 196 196 192 189 187 185 186 185 183 182 180 178 179 183 195 211 229 238 232 227 226 222 221 220 212 207
164 161 168 186 189 184 186 182 167 166 192 208 206 201 199 202 208 210 206 204 201 198 199 200 198 196 195 197 201 207 222 236 241 240 235 231 230 231 235 235 232 232
147 149 155 169 181 188 190 180 165 174 215 234 227 214 210 218 224 221 215 214 213 212 218 222 223 224 223 225 229 234 246 255 253 246 239 235 236 237 240 243 243 244
133 136 142 153 167 178 181 178 177 190 216 237 245 239 231 229 229 224 219 222 223 223 230 237 240 241 238 238 240 243 251 261 264 258 249 245 244 242 244 248 250 251
122 126 136 150 161 169 177 186 193 202 219 237 252 255 245 229 221 218 218 226 232 234 240 245 247 248 246 248 250 251 253 257 260 259 255 252 251 250 251 254 256 257
105 111 119 128 139 151 165 185 202 214 225 236 245 244 235 221 214 213 218 228 237 242 248 253 256 258 259 262 263 262 258 256 255 255 253 253 255 257 259 261 262 262
95 103 108 108 116 128 138 150 168 191 208 217 219 217 217 217 217 224 232 238 244 247 253 260 262 263 266 268 269 268 264 261 260 260 259 259 260 263 265 268 269 268
85 94 99 98 103 110 114 118 124 132 142 147 150 160 168 184 203 219 229 235 244 253 259 266 268 271 273 273 273 273 273 273 273 272 271 269 268 269 271 273 274 272
77 82 86 88 90 93 95 98 99 102 110 113 110 108 101 93 96 110 124 89 41 339 300 305 306 298 286 280 282 283 282 280 280 280 281 280 277 275 276 277 276 275
75 77 79 80 78 78 79 82 81 77 80 90 94 89 80 73 67 57 51 54 62 78 87 7 336 314 291 284 286 287 286 285 284 284 285 284 282 281 280 282 282 282
73 74 75 76 76 75 74 75 75 73 73 78 84 85 80 72 65 60 57 58 63 84 151 288 311 302 294 293 292 292 292 291 290 289 288 286 286 287 286 287 288 288
69 69 69 70 73 76 76 77 78 75 71 69 72 77 80 79 78 77 76 73 71 76 75 29 5 344 326 319 314 314 313 305 300 296 292 290 291 293 292 290 290 291